Meteo Giornale » Osservazioni meteo Italia » Verona-Villafranca

ore: 19:50 - Osservazioni Meteo Verona-Villafranca
Lat. 45° 23' N Lon. 10° 52' E Alt. 67 metri s.l.m.

sereno Europe/Rome

7 °C

Sereno

Temp. 24 Ore

-1 °C

12 °C

Nord

3.7 Km/h

Dew point 1 °C

Umidità 65 %

Visibilità  10 Km

Il sole sorge alle ore 07:06

Il sole tramonta alle ore 17:53

Data e Ora Cielo e Fenomeni T °C DP °C Um. % Pres. hPa Vis. km Vento km/h
Oggi h: 19:50 sereno Sereno 7 1 65 1026 10 N 3.7
Oggi h: 19:20 sereno Sereno 8 2 65 1026 10 N 3.7
Oggi h: 18:50 sereno Sereno 8 2 65 1026 10 N 5.5
Oggi h: 18:20 sereno Sereno 9 1 57 1025 10 N 5.5
Oggi h: 17:50 sereno Sereno 10 1 53 1025 10 E 7.4
Oggi h: 17:20 sereno Sereno 11 2 53 1025 10 E 7.4
Oggi h: 16:50 sereno Sereno 12 2 50 1024 10 E 9.3
Oggi h: 16:20 sereno Sereno 12 2 50 1024 10 E 9.3
Oggi h: 15:50 sereno Sereno 12 2 50 1024 10 E 9.3
Oggi h: 15:20 sereno Sereno 12 1 46 1024 10 E/SE 9.3
Oggi h: 14:50 sereno Sereno 12 1 46 1024 10 E 7.4
Oggi h: 14:20 sereno Sereno 12 0 43 1024 10 N 5.5
Oggi h: 13:50 sereno Sereno 11 1 50 1024 10 N 3.7
Oggi h: 13:20 sereno Sereno 11 1 50 1024 10 E 7.4
Oggi h: 12:50 sereno Sereno 11 1 50 1024 10 N 5.5
Oggi h: 12:20 sereno Sereno 10 1 53 1024 10 N 5.5
Oggi h: 11:50 sereno Sereno 10 2 57 1024 10 E/SE 7.4
Oggi h: 11:20 sereno Sereno 9 1 57 1024 10 N 5.5
Oggi h: 10:50 sereno Sereno 8 1 61 1024 10 E/SE 7.4
Oggi h: 10:20 sereno Sereno 7 0 60 1023 10 SE 7.4
Oggi h: 09:50 sereno Sereno 6 1 70 1023 10 E 9.3
Oggi h: 09:20 sereno Sereno 5 -1 65 1023 10 E/NE 7.4
Oggi h: 08:50 sereno Sereno 3 -1 74 1023 10 N 5.5
Oggi h: 08:20 sereno Sereno 1 -2 80 1023 10 N 5.5
Oggi h: 07:50 sereno Sereno 0 -2 86 1022 10 N 3.7
Oggi h: 07:20 sereno Sereno -1 -3 86 1022 10 N 1.8
Oggi h: 06:50 sereno Sereno 1 -3 74 1022 10 N 1.8
Oggi h: 06:20 sereno Sereno 0 -3 80 1022 10 N 0
Oggi h: 05:50 sereno Sereno 1 -3 74 1022 10 SO 9.3
Oggi h: 05:20 sereno Sereno 1 -2 80 1022 10 N 3.7
Oggi h: 04:50 sereno Sereno 1 -2 80 1022 10 N 3.7
Oggi h: 04:20 sereno Sereno 2 -2 74 1022 10 N 5.5
Oggi h: 03:50 sereno Sereno 1 -2 80 1022 10 N 3.7
Oggi h: 03:20 sereno Sereno 2 -2 74 1022 10 NO 11.1
Oggi h: 02:50 sereno Sereno 2 -2 74 1022 10 NO 7.4
Oggi h: 02:20 sereno Sereno 3 -2 69 1022 10 N/NO 7.4
Oggi h: 01:50 sereno Sereno 2 -2 74 1023 10 N/NO 11.1
Oggi h: 01:20 sereno Sereno 2 -2 74 1023 10 NO 9.3
Oggi h: 00:50 sereno Sereno 2 -2 74 1023 10 NO 7.4
Oggi h: 00:20 sereno Sereno 2 -2 74 1023 10 N 7.4
Ieri h: 23:50 sereno Sereno 2 -2 74 1023 10 N 7.4
Ieri h: 23:20 sereno Sereno 3 -2 69 1023 10 N 7.4
Ieri h: 22:50 sereno Sereno 4 -2 64 1023 10 N 7.4
Ieri h: 22:20 sereno Sereno 5 -2 60 1024 10 N 5.5
Ieri h: 21:50 sereno Sereno 4 -2 64 1023 10 N/NO 9.3
Ieri h: 21:20 sereno Sereno 5 -2 60 1024 10 N/NO 7.4